Location: Le Broussan
(43.1754°N, 5.8701°E)
Time: 17:48:38
(UTC+00:00)

Daily predictions for brighter satellites

Satellite Brightness Start Highest point End
(mag) Time Altitude Azimuth Time Altitude Azimuth Time Altitude Azimuth
Resurs 1-3 3.6 19:45:23 10° SSE 19:49:46 79° ENE 19:54:10 10° N
Cosmos 1125 Rocket 3.6 19:46:24 10° NNW 19:51:40 73° ENE 19:56:56 10° SSE
Cosmos 1300 3.7 19:50:04 10° NNW 19:53:46 48° W 19:57:26 10° SSW
H-2A R/B 4.1 19:50:01 10° SSW 19:54:44 30° W 19:59:29 10° NW
VEP-3 4.3 19:55:47 10° SSW 19:58:59 15° S 20:02:48 10° SE
Cosmos 2322 Rocket 2.3 19:54:37 10° SSW 20:00:13 84° WNW 20:05:53 10° NNE
SPOT 3 Rocket 3.7 19:56:53 10° S 20:02:05 79° WSW 20:07:20 10° NNW
NOSS 7 (D) 3.8 19:59:36 10° SSW 20:02:27 61° SE 20:05:09 10° NE
Cosmos 2237 4.3 19:57:23 10° S 20:02:58 59° ESE 20:08:37 10° NNE
OAO 2 Rocket 4.4 19:59:45 10° SW 20:04:15 28° SSE 20:08:46 10° ESE
Cosmos 1455 2.5 20:09:20 10° N 20:13:06 50° E 20:16:46 10° SSE
Cosmos 1461 3.8 20:08:36 10° NW 20:13:13 53° WSW 20:17:48 10° SSE
Cosmos 1825 Rocket 4.2 20:10:54 10° SSE 20:14:57 37° E 20:19:05 10° NNE
ATLAS CENTAUR R/B 3.5 20:16:52 10° N 20:18:51 14° NE 20:20:50 10° ENE
Cosmos 1703 3.7 20:15:53 10° SSE 20:19:33 43° E 20:23:14 10° NNE
COSMOS 2428 3.8 20:15:56 10° SSE 20:20:21 24° ESE 20:24:48 10° NE
Geosat 4.5 20:15:34 10° SSE 20:20:30 59° WSW 20:25:29 10° NW
Cosmos 1812 Rocket 3.6 20:19:01 10° N 20:23:23 84° W 20:27:41 10° S
Cosmos 2322 4.1 20:18:42 10° S 20:24:04 44° ESE 20:29:29 10° NE
Cosmos 1844 4.2 20:19:11 10° NNW 20:24:47 49° ENE 20:29:32 14° SE
Delta 2 Rocket 4.1 20:23:53 10° SW 20:26:37 23° S 20:28:09 17° SE
Cosmos 1602 Rocket 4.2 20:23:58 10° SSW 20:28:18 60° W 20:32:43 10° N
Cosmos 783 Rocket 4.5 20:25:04 10° S 20:30:16 66° ESE 20:35:27 10° NNE
Cosmos 1709 Rocket 4.3 20:24:57 10° SSE 20:30:59 52° E 20:37:08 10° NNE
NOSS 3-3 (A) 4.4 20:27:20 10° S 20:32:30 36° ESE 20:38:12 10° NE
NOSS 3-3 (C) 4.4 20:27:27 10° S 20:32:37 36° ESE 20:38:19 10° NE
Cosmos 2263 Rocket 4.0 20:28:24 10° NW 20:32:55 26° WSW 20:37:26 10° SSW
MetOp-B 4.2 20:27:53 10° SSE 20:33:15 89° ENE 20:38:39 10° NNW
Nadezhda 1 Rocket 4.1 20:27:38 10° N 20:34:05 86° W 20:40:28 10° S
Cosmos 2237 Rocket 4.1 20:33:12 11° ESE 20:34:23 11° E 20:36:06 10° ENE
Atlas Centaur 2 3.5 20:29:47 10° SW 20:34:36 26° S 20:38:47 15° SE
Terra 3.3 20:31:40 13° ESE 20:34:51 24° ENE 20:38:39 10° NNE
Cosmos 2333 4.3 20:30:24 10° S 20:35:50 53° ESE 20:41:21 10° NE
CARTOSAT-1 4.5 20:32:57 16° SE 20:35:52 34° ENE 20:39:47 10° N
Cosmos 2219 Rocket 2.8 20:31:16 10° S 20:36:17 36° ESE 20:41:21 10° NE
Cosmos 2360 Rocket 2.4 20:32:28 10° SSW 20:38:06 79° WNW 20:43:48 10° NNE
IGS 5A 3.4 20:35:34 15° SSE 20:38:58 73° ENE 20:43:07 10° N
IRIS 4.0 20:39:06 10° WSW 20:42:07 49° S 20:43:19 24° ESE
DELTA 2 R/B (1) 4.4 20:38:29 10° SSW 20:43:05 27° SSE 20:47:42 10° E
Cosmos 2333 Rocket 2.5 20:40:37 10° S 20:46:01 47° ESE 20:51:29 10° NE
Resurs 01 Rocket 3.0 20:46:49 10° SSW 20:50:51 34° W 20:54:54 10° NNW
ATLAS 2AS CENTAUR R/B 4.5 20:45:01 10° NNW 20:51:18 26° NNE 20:57:12 10° E
Cosmos 1315 Rocket 4.0 20:48:39 10° N 20:52:19 30° ENE 20:54:13 21° ESE
Cosmos 1818 4.1 20:48:08 10° SW 20:53:31 61° NW 20:58:55 10° NNE
Cosmos-2242 3.0 20:51:33 10° N 20:55:55 85° W 20:59:05 18° S
Cosmos 773 Rocket 4.0 20:50:49 10° S 20:56:05 73° ESE 21:01:23 10° NNE
SL-16 R/B 4.5 20:52:36 10° WSW 20:57:23 27° NW 21:02:12 10° N
ERS-1 Rocket 3.0 20:56:51 21° SSE 21:00:14 67° ENE 21:05:15 10° N
Cosmos 2221 4.0 20:57:12 10° NNE 21:00:46 24° ENE 21:02:29 19° ESE
GEOS 3 Rocket 4.0 20:59:19 10° NNE 21:04:43 73° NW 21:10:04 10° SW
USA 215 3.2 21:01:30 10° NE 21:08:04 74° SE 21:14:36 10° SW
Cosmos 2278 Rocket 3.4 21:04:36 10° N 21:09:36 31° NE 21:13:09 17° ESE
ATLAS 5 CENTAUR R/B 2.8 21:06:24 10° WSW 21:10:21 44° NW 21:14:48 10° NNE
USA 245 4.1 21:08:35 18° SSW 21:10:39 40° W 21:14:23 10° NNW
Meteor 1-11 4.2 21:05:32 12° S 21:10:41 84° E 21:16:24 10° NNE
Cosmos 1844 Rocket 3.1 21:09:07 10° NNW 21:14:34 57° WSW 21:18:16 20° S
Cosmos 1400 Rocket 3.5 21:11:21 10° NNW 21:15:13 48° W 21:17:41 19° SSW
SPOT 5 2.9 21:13:57 25° SSE 21:16:57 82° ENE 21:21:48 10° NNW
Spot 2 Rocket 4.4 21:16:44 14° SSW 21:20:52 43° W 21:25:43 10° NNW
OAO 3 Rocket 4.5 21:19:35 10° WSW 21:23:27 23° SSW 21:23:58 23° S
USA 81 4.0 21:19:52 20° S 21:23:38 89° W 21:28:57 10° N
Cosmos 2058 4.0 21:25:00 27° ESE 21:25:36 28° E 21:29:09 10° NNE
BREEZE M DEB (TANK) 1.7 21:25:37 10° WNW 21:27:39 64° W 21:27:39 64° W
Cosmos 2181 Rocket 4.0 21:23:53 10° N 21:30:15 83° W 21:34:15 24° S
Cosmos 2074 Rocket 4.1 21:29:15 26° SSE 21:32:46 62° E 21:38:52 10° NNE
SPOT 1/Viking Rocket 4.5 21:31:52 17° SSW 21:35:28 41° W 21:40:22 10° NNW
Cosmos 1076 Rocket 4.3 21:36:08 32° ESE 21:36:47 33° E 21:40:38 10° NNE
Cosmos 1680 Rocket 4.2 21:35:41 31° SE 21:37:00 36° ESE 21:41:50 10° NE
USA 267 3.8 21:34:04 15° ESE 21:39:30 56° NNE 21:45:53 10° NW
Cosmos 2084 3.4 21:42:16 10° NW 21:46:45 84° NE 21:48:05 45° SE
Cosmos 1842 Rocket 3.4 21:43:21 10° N 21:47:43 89° ENE 21:49:02 45° S
OAO 2 Rocket 4.1 21:43:41 10° WSW 21:48:27 34° S 21:48:29 34° S
JB-3 4.1 21:45:23 10° NNE 21:49:14 74° ESE 21:49:57 55° SSE
MTI 3.5 21:50:05 10° N 21:53:10 85° WNW 21:53:10 85° WNW
Cosmos 923 Rocket 4.0 21:52:20 36° S 21:54:25 68° ESE 21:59:41 10° NNE
Cosmos 1825 3.6 21:58:09 24° E 21:58:09 24° E 22:00:53 10° NE
ATLAS CENTAUR R/B 1.0 21:54:32 10° NW 21:58:10 67° WSW 21:58:26 64° SSW
Cosmos 1980 3.7 21:56:55 35° S 21:59:13 64° ESE 22:04:49 10° NNE
ALOS 2 4.4 21:58:03 17° E 21:59:19 19° ENE 22:02:25 10° NNE
Cosmos 967 Rocket 4.5 21:55:33 13° SSW 22:01:27 88° ESE 22:07:58 10° NNE
COSMOS 2428 3.5 21:58:45 10° SW 22:04:14 51° WNW 22:09:48 10° NNE
Cosmos 1869 3.5 22:04:42 10° NNW 22:08:39 63° W 22:09:23 51° SW
NOSS 0 Rocket 3.9 22:07:31 23° SSW 22:11:34 87° WNW 22:17:47 10° NNE
Terra 2.8 22:10:34 28° SW 22:12:22 39° W 22:16:50 10° NNW
Cosmos 1610 Rocket 4.4 22:11:20 36° S 22:14:07 83° E 22:20:31 10° N
NOSS 3-4 (A) 4.1 22:08:30 10° NNW 22:15:27 63° NE 22:19:47 27° ESE
NOSS 3-4 (C) 4.1 22:08:37 10° NNW 22:15:34 63° NE 22:19:55 27° ESE
Cosmos 2237 Rocket 2.1 22:14:58 35° SSW 22:17:29 84° ESE 22:23:13 10° NNE
Genesis I 3.2 22:18:36 65° E 22:18:36 65° E 22:22:10 10° NE
Cosmos 2344 3.5 22:16:02 29° S 22:20:05 63° ESE 22:27:47 10° NE
Cosmos 2219 Rocket 3.6 22:15:08 10° WSW 22:20:13 35° NW 22:25:21 10° N
Elektron 1 4.3 22:21:21 56° WSW 22:21:55 72° NW 22:26:41 10° NE
BREEZE-M R/B 4.0 22:13:51 10° WNW 22:22:31 47° SW 22:23:36 42° SSW
Atlas Centaur 2 4.0 22:17:58 10° WSW 22:21:21 21° SSW 22:21:21 21° SSW
DELTA 2 R/B (1) 3.6 22:23:30 10° WSW 22:28:56 54° S 22:30:03 46° SE
Cosmos 2333 Rocket 4.0 22:25:36 10° WSW 22:30:29 29° NW 22:35:26 10° N
Thor Agena Rocket 3.4 22:26:51 10° NNE 22:31:59 87° ESE 22:33:18 51° S
Cosmos 2221 3.8 22:34:29 10° NNW 22:38:20 30° W 22:39:20 27° WSW
BREEZE-M DEB (TANK) 2.9 22:37:50 10° WNW 22:41:13 34° N 22:41:22 34° NNE
Iridium 2 3.8 22:38:44 10° N 22:42:26 71° WNW 22:42:26 71° WNW
Cosmos 1892 3.9 22:41:59 30° W 22:42:39 33° WNW 22:46:07 10° N
Cosmos 1371 Rocket 3.9 22:37:50 10° NNW 22:43:08 83° ENE 22:44:15 57° SSE
ATLAS 2AS CENTAUR R/B 2.8 22:35:54 10° NW 22:43:29 82° NE 22:46:25 39° SE
Cosmos 1766 Rocket 3.9 22:44:25 51° E 22:44:25 51° E 22:48:39 10° NNE
EO 1 Del DPAF 3.3 22:41:15 10° N 22:44:59 69° WNW 22:44:59 69° WNW
MOS 1-B Rocket 4.3 22:39:21 10° NNE 22:47:03 87° WNW 22:49:57 38° SSW
Okean 3 Rocket 3.6 22:47:03 64° ESE 22:47:11 65° E 22:51:35 10° NNE
Aureole 2 Rocket 4.0 22:47:21 10° N 22:48:59 27° NNE 22:48:59 27° NNE
Cosmos 1328 Rocket 4.2 22:46:08 10° N 22:50:14 41° ENE 22:50:25 40° E
Cosmos 2112 Rocket 4.4 22:48:24 35° SW 22:50:31 61° WNW 22:55:51 10° NNE
USA 215 4.4 22:44:43 10° NE 22:50:48 43° NNW 22:56:53 10° W
Cosmos 2218 Rocket 4.3 22:50:54 43° SE 22:52:35 55° E 22:58:44 10° NNE
Cosmos 1606 3.2 22:48:46 10° N 22:52:19 52° ENE 22:52:19 52° ENE
Cosmos 2278 Rocket 2.8 22:48:29 10° NW 22:53:49 43° WSW 22:54:59 38° SW
Cosmos 2297 4.1 22:49:44 10° NNW 22:55:24 58° ENE 22:57:11 41° ESE
Cosmos 2366 rocket 4.2 22:56:35 45° SE 22:58:15 58° E 23:04:29 10° NNE
Cosmos 1420 Rocket 4.4 22:54:08 10° NNW 22:59:19 54° ENE 23:00:36 43° ESE
Spot 4 4.1 22:59:07 51° SW 22:59:43 54° W 23:04:25 10° NNW
Lacrosse 5 rocket 4.1 22:58:07 10° NNW 23:00:31 15° NNE 23:02:51 10° NE
SL-16 R/B 2.1 23:00:46 57° SSE 23:01:49 71° ESE 23:07:29 10° NNE
Cosmos 1943 Rocket 3.5 22:56:47 10° N 23:01:54 33° NE 23:04:40 22° ESE
Cosmos 1408 4.0 23:03:24 28° W 23:03:30 28° WNW 23:06:39 10° NNW
Cosmos 2056 Rocket 3.5 23:01:40 10° NNW 23:07:04 72° WSW 23:07:58 59° SSW
Cosmos 1959 Rocket 4.4 23:06:20 51° SSE 23:07:51 70° E 23:14:02 10° NNE
Cosmos 2341 Rocket 4.2 23:11:47 41° SW 23:13:55 65° W 23:20:06 10° N
Cosmos 332 Rocket 4.3 23:15:59 10° N 23:20:40 51° ENE 23:21:28 45° E
Meteor 2-3 Rocket 3.7 23:21:02 58° SSE 23:22:03 73° E 23:27:45 10° NNE
USA 267 3.5 23:21:24 45° SSW 23:22:33 49° SW 23:28:53 10° WNW
IRIDIUM 104 4.3 23:23:26 63° SSW 23:24:15 78° W 23:29:30 10° N
Cosmos 2151 4.0 23:23:52 34° W 23:24:22 36° WNW 23:28:20 10° N
Helios 1A 3.1 23:24:53 65° ENE 23:24:53 65° ENE 23:29:00 10° N
Cosmos 405 4.3 23:26:23 10° N 23:29:08 34° NE 23:29:08 34° NE
SL-8 Rocket 4.2 23:30:58 43° SW 23:32:52 62° W 23:39:00 10° N
Cosmos 1825 4.1 23:32:56 21° W 23:33:12 21° WNW 23:36:10 10° NNW
IRIDIUM 114 4.4 23:32:35 55° SW 23:33:26 64° W 23:38:38 10° N
Cosmos 1340 3.1 23:34:23 57° NNW 23:34:23 57° NNW 23:37:36 10° N
Meteor 1-26 Rocket 4.3 23:27:55 10° N 23:33:58 85° E 23:35:20 56° SSE
Cosmos 1452 Rocket 3.6 23:28:52 10° NNW 23:34:09 72° ENE 23:35:06 57° SE
CZ-4C R/B 4.1 23:28:08 10° NNW 23:34:45 40° NE 23:42:16 10° ESE
ALOS 2 3.2 23:35:27 43° W 23:35:27 43° W 23:39:32 10° NNW
COSMOS 2455 3.2 23:29:57 10° NNW 23:35:56 60° NE 23:38:24 35° ESE
Cosmos 1408 Rocket 3.5 23:35:56 74° W 23:35:56 74° W 23:40:21 10° N
PSLV R/B 4.4 23:32:54 10° NNE 23:36:34 38° E 23:36:34 38° E
Cosmos 1603 4.4 23:36:25 36° ESE 23:36:54 37° ESE 23:42:05 10° NE
Cosmos 1933 3.8 23:34:42 10° NNW 23:38:13 52° WNW 23:38:13 52° WNW
Cosmos 1151 Rocket 3.4 23:36:00 10° NNW 23:40:03 51° W 23:40:03 51° W
Cosmos 44 4.0 23:43:37 35° W 23:44:42 41° NW 23:48:54 10° NNE
Cosmos 1500 Rocket 3.6 23:44:49 66° E 23:44:49 66° E 23:49:07 10° NNE
Cosmos 1727 Rocket 3.9 23:40:10 10° N 23:46:26 88° W 23:48:04 53° S
Cosmos 2369 Rocket 2.8 23:41:08 10° NNW 23:46:35 49° ENE 23:48:49 32° ESE
Resurs 1-4 Rocket 4.4 23:45:09 10° ENE 23:47:09 12° E 23:48:44 11° ESE
SL-08 R/B 4.5 23:46:43 51° S 23:48:31 89° W 23:54:59 10° N
GP-B 4.1 23:44:28 10° NNW 23:48:31 35° W 23:48:50 35° W
Cosmos 371 Rocket 3.4 23:45:34 10° NNW 23:50:21 60° WSW 23:50:25 60° WSW
SeaSat 1 4.2 23:47:53 10° ENE 23:51:20 19° ESE 23:51:20 19° ESE
Helios 1B rocket 2.9 23:51:40 10° NNE 23:55:23 50° E 23:55:23 50° E
